| time (UTC) | temp F | wind direction | speed MPH | gust MPH | rain 1hr in | rain 24hr in | rain mn in | humidity % | barometer mb |
| 20260831030709 | 68 | 121 | 9.0 | 13.0 | 0.00 | 0.00 | 0.00 | 53 | 1018.5 |
| 20260831030209 | 68 | 137 | 12.0 | 15.0 | 0.00 | 0.00 | 0.00 | 53 | 1018.6 |
| 20260831025707 | 68 | 120 | 12.0 | 13.0 | 0.00 | 0.00 | 0.00 | 52 | 1018.4 |
| 20260831025202 | 68 | 124 | 14.0 | 15.0 | 0.00 | 0.00 | 0.00 | 53 | 1018.6 |
| 20260831024659 | 68 | 114 | 5.0 | 12.0 | 0.00 | 0.00 | 0.00 | 54 | 1018.4 |
| 20260831024157 | 68 | 115 | 7.0 | 10.0 | 0.00 | 0.00 | 0.00 | 54 | 1018.3 |
| 20260831023656 | 69 | 100 | 7.0 | 7.0 | 0.00 | 0.00 | 0.00 | 52 | 1018.3 |
| 20260831023154 | 70 | 132 | 8.0 | 10.0 | 0.00 | 0.00 | 0.00 | 49 | 1018.3 |
| 20260831022650 | 70 | 140 | 7.0 | 10.0 | 0.00 | 0.00 | 0.00 | 50 | 1018.3 |
| 20260831022145 | 70 | 131 | 9.0 | 13.0 | 0.00 | 0.00 | 0.00 | 52 | 1018.3 |
| 20260831021644 | 70 | 139 | 8.0 | 11.0 | 0.00 | 0.00 | 0.00 | 51 | 1018.1 |
| 20260831021140 | 70 | 148 | 5.0 | 12.0 | 0.00 | 0.00 | 0.00 | 52 | 1018.3 |
| 20260831020636 | 72 | 114 | 7.0 | 14.0 | 0.00 | 0.00 | 0.00 | 50 | 1018.2 |
| 20260831020131 | 72 | 129 | 6.0 | 13.0 | 0.00 | 0.00 | 0.00 | 50 | 1018.1 |
| 20260831015626 | 73 | 105 | 3.0 | 3.0 | 0.00 | 0.00 | 0.00 | 50 | 1018.3 |
| 20260831015125 | 73 | 0 | 2.0 | 5.0 | 0.00 | 0.00 | 0.00 | 48 | 1017.9 |
| 20260831014620 | 74 | 8 | 3.0 | 4.0 | 0.00 | 0.00 | 0.00 | 49 | 1017.9 |
| 20260831014116 | 74 | 334 | 2.0 | 4.0 | 0.00 | 0.00 | 0.00 | 48 | 1018.1 |
| 20260831013612 | 74 | 240 | 2.0 | 5.0 | 0.00 | 0.00 | 0.00 | 47 | 1017.9 |
| 20260831013112 | 75 | 348 | 5.0 | 7.0 | 0.00 | 0.00 | 0.00 | 46 | 1017.9 |
| 20260831012612 | 75 | 338 | 7.0 | 10.0 | 0.00 | 0.00 | 0.00 | 45 | 1017.8 |
| 20260831012107 | 76 | 355 | 9.0 | 9.0 | 0.00 | 0.00 | 0.00 | 45 | 1018.1 |
| 20260831011606 | 77 | 336 | 9.0 | 11.0 | 0.00 | 0.00 | 0.00 | 43 | 1017.8 |
| 20260831011101 | 78 | 318 | 11.0 | 12.0 | 0.00 | 0.00 | 0.00 | 41 | 1018.2 |
| 20260831010557 | 79 | 354 | 4.0 | 8.0 | 0.00 | 0.00 | 0.00 | 41 | 1017.9 |
| 20260831010053 | 79 | 334 | 7.0 | 8.0 | 0.00 | 0.00 | 0.00 | 42 | 1017.9 |
| 20260831005548 | 79 | 342 | 9.0 | 12.0 | 0.00 | 0.00 | 0.00 | 41 | 1017.9 |
| 20260831005048 | 79 | 331 | 10.0 | 12.0 | 0.00 | 0.00 | 0.00 | 42 | 1018.1 |
| 20260831004544 | 78 | 1 | 7.0 | 14.0 | 0.00 | 0.00 | 0.00 | 41 | 1018.1 |
| 20260831004039 | 79 | 327 | 6.0 | 11.0 | 0.00 | 0.00 | 0.00 | 41 | 1017.8 |
| 20260831003536 | 78 | 325 | 6.0 | 14.0 | 0.00 | 0.00 | 0.00 | 42 | 1017.9 |
| 20260831003031 | 79 | 12 | 4.0 | 10.0 | 0.00 | 0.00 | 0.00 | 40 | 1018.1 |
| 20260831002529 | 78 | 315 | 7.0 | 11.0 | 0.00 | 0.00 | 0.00 | 42 | 1018.1 |
| 20260831002025 | 80 | 329 | 13.0 | 13.0 | 0.00 | 0.00 | 0.00 | 38 | 1018.1 |
| 20260831001520 | 80 | 346 | 5.0 | 9.0 | 0.00 | 0.00 | 0.00 | 42 | 1018.2 |
| 20260831001017 | 78 | 333 | 6.0 | 9.0 | 0.00 | 0.00 | 0.00 | 41 | 1017.9 |
| 20260831000513 | 80 | 359 | 4.0 | 13.0 | 0.00 | 0.00 | 0.00 | 40 | 1017.8 |
| 20260831000006 | 81 | 317 | 6.0 | 14.0 | 0.00 | 0.00 | 0.00 | 40 | 1017.7 |
| 20260830235500 | 81 | 15 | 5.0 | 11.0 | 0.00 | 0.00 | 0.00 | 38 | 1017.8 |
| 20260830234956 | 82 | 346 | 9.0 | 13.0 | 0.00 | 0.00 | 0.00 | 39 | 1017.8 |
| 20260830234455 | 81 | 15 | 5.0 | 8.0 | 0.00 | 0.00 | 0.00 | 42 | 1018.1 |
| 20260830233951 | 80 | 350 | 9.0 | 13.0 | 0.00 | 0.00 | 0.00 | 43 | 1018.1 |
| 20260830233446 | 79 | 345 | 2.0 | 13.0 | 0.00 | 0.00 | 0.00 | 44 | 1017.9 |
| 20260830232942 | 79 | 317 | 13.0 | 20.0 | 0.00 | 0.00 | 0.00 | 46 | 1018.3 |
| 20260830232438 | 78 | 332 | 5.0 | 14.0 | 0.00 | 0.00 | 0.00 | 46 | 1018.2 |
| 20260830231935 | 77 | 18 | 8.0 | 13.0 | 0.00 | 0.00 | 0.00 | 43 | 1018.2 |
| 20260830231429 | 76 | 355 | 4.0 | 11.0 | 0.00 | 0.00 | 0.00 | 45 | 1018.4 |
| 20260830230929 | 75 | 2 | 7.0 | 10.0 | 0.00 | 0.00 | 0.00 | 47 | 1018.3 |
| 20260830230425 | 75 | 28 | 5.0 | 7.0 | 0.00 | 0.00 | 0.00 | 49 | 1018.2 |
| 20260830225924 | 75 | 6 | 4.0 | 9.0 | 0.00 | 0.00 | 0.00 | 50 | 1018.2 |
| 20260830225420 | 74 | 18 | 8.0 | 12.0 | 0.00 | 0.00 | 0.00 | 48 | 1018.3 |
| 20260830224920 | 75 | 14 | 6.0 | 10.0 | 0.00 | 0.00 | 0.00 | 47 | 1018.2 |
| 20260830224418 | 76 | 31 | 7.0 | 10.0 | 0.00 | 0.00 | 0.00 | 46 | 1018.1 |
| 20260830223915 | 76 | 10 | 4.0 | 9.0 | 0.00 | 0.00 | 0.00 | 49 | 1018.4 |
| 20260830223412 | 76 | 40 | 7.0 | 11.0 | 0.00 | 0.00 | 0.00 | 47 | 1018.2 |
| 20260830222910 | 76 | 22 | 8.0 | 15.0 | 0.00 | 0.00 | 0.00 | 48 | 1018.3 |
| 20260830222406 | 75 | 30 | 9.0 | 10.0 | 0.00 | 0.00 | 0.00 | 49 | 1018.6 |
| 20260830221902 | 75 | 82 | 10.0 | 14.0 | 0.00 | 0.00 | 0.00 | 48 | 1018.4 |
| 20260830221358 | 74 | 35 | 10.0 | 15.0 | 0.00 | 0.00 | 0.00 | 48 | 1018.8 |
| 20260830220853 | 74 | 2 | 5.0 | 12.0 | 0.00 | 0.00 | 0.00 | 50 | 1018.3 |
| 20260830220352 | 74 | 6 | 9.0 | 16.0 | 0.00 | 0.00 | 0.00 | 48 | 1018.4 |
| 20260830215850 | 74 | 3 | 8.0 | 17.0 | 0.00 | 0.00 | 0.00 | 49 | 1018.5 |
| 20260830215345 | 75 | 10 | 7.0 | 14.0 | 0.00 | 0.00 | 0.00 | 48 | 1018.5 |
| 20260830214840 | 75 | 33 | 6.0 | 13.0 | 0.00 | 0.00 | 0.00 | 48 | 1018.2 |
| 20260830214335 | 77 | 325 | 6.0 | 12.0 | 0.00 | 0.00 | 0.00 | 46 | 1018.4 |
| 20260830213835 | 78 | 24 | 2.0 | 5.0 | 0.00 | 0.00 | 0.00 | 41 | 1018.2 |
| 20260830213330 | 78 | 116 | 3.0 | 10.0 | 0.00 | 0.00 | 0.00 | 42 | 1018.1 |
| 20260830212826 | 80 | 111 | 5.0 | 11.0 | 0.00 | 0.00 | 0.00 | 38 | 1018.6 |
| 20260830212321 | 80 | 87 | 3.0 | 9.0 | 0.00 | 0.00 | 0.00 | 38 | 1018.5 |
| 20260830211820 | 79 | 48 | 2.0 | 12.0 | 0.00 | 0.00 | 0.00 | 38 | 1018.6 |
| 20260830211315 | 79 | 99 | 8.0 | 13.0 | 0.00 | 0.00 | 0.00 | 42 | 1018.4 |
| 20260830210811 | 78 | 152 | 4.0 | 10.0 | 0.00 | 0.00 | 0.00 | 43 | 1018.6 |
| 20260830210310 | 78 | 122 | 12.0 | 13.0 | 0.00 | 0.00 | 0.00 | 42 | 1018.6 |
| 20260830205808 | 78 | 176 | 7.0 | 12.0 | 0.00 | 0.00 | 0.00 | 44 | 1018.5 |
| 20260830205307 | 77 | 170 | 8.0 | 14.0 | 0.00 | 0.00 | 0.00 | 45 | 1018.8 |
| 20260830204803 | 77 | 135 | 5.0 | 12.0 | 0.00 | 0.00 | 0.00 | 47 | 1018.6 |
| 20260830204302 | 77 | 113 | 7.0 | 9.0 | 0.00 | 0.00 | 0.00 | 45 | 1018.6 |
| 20260830203758 | 77 | 143 | 14.0 | 19.0 | 0.00 | 0.00 | 0.00 | 41 | 1018.8 |
| 20260830203254 | 77 | 131 | 8.0 | 11.0 | 0.00 | 0.00 | 0.00 | 46 | 1018.9 |
| 20260830202753 | 77 | 167 | 7.0 | 14.0 | 0.00 | 0.00 | 0.00 | 43 | 1019.1 |
| 20260830202248 | 77 | 144 | 12.0 | 13.0 | 0.00 | 0.00 | 0.00 | 47 | 1019.0 |
| 20260830201748 | 78 | 144 | 9.0 | 16.0 | 0.00 | 0.00 | 0.00 | 48 | 1019.0 |
| 20260830201243 | 78 | 128 | 11.0 | 16.0 | 0.00 | 0.00 | 0.00 | 47 | 1018.6 |
| 20260830200738 | 78 | 127 | 10.0 | 15.0 | 0.00 | 0.00 | 0.00 | 47 | 1019.0 |
| 20260830200238 | 78 | 147 | 9.0 | 21.0 | 0.00 | 0.00 | 0.00 | 46 | 1019.0 |
| 20260830195734 | 78 | 123 | 13.0 | 22.0 | 0.00 | 0.00 | 0.00 | 47 | 1019.0 |
| 20260830195232 | 78 | 171 | 5.0 | 16.0 | 0.00 | 0.00 | 0.00 | 49 | 1019.1 |
| 20260830194731 | 77 | 178 | 10.0 | 12.0 | 0.00 | 0.00 | 0.00 | 52 | 1019.0 |
| 20260830194226 | 77 | 173 | 5.0 | 15.0 | 0.00 | 0.00 | 0.00 | 49 | 1019.1 |
| 20260830193726 | 77 | 130 | 11.0 | 18.0 | 0.00 | 0.00 | 0.00 | 49 | 1019.1 |
| 20260830193220 | 77 | 135 | 14.0 | 24.0 | 0.00 | 0.00 | 0.00 | 50 | 1019.2 |
| 20260830192716 | 77 | 147 | 16.0 | 20.0 | 0.00 | 0.00 | 0.00 | 50 | 1019.2 |
| 20260830192210 | 77 | 179 | 19.0 | 19.0 | 0.00 | 0.00 | 0.00 | 49 | 1019.3 |
| 20260830191702 | 77 | 167 | 11.0 | 18.0 | 0.00 | 0.00 | 0.00 | 49 | 1019.5 |
| 20260830191200 | 77 | 176 | 9.0 | 15.0 | 0.00 | 0.00 | 0.00 | 50 | 1019.5 |
| 20260830190656 | 77 | 136 | 6.0 | 11.0 | 0.00 | 0.00 | 0.00 | 50 | 1019.6 |
| 20260830190151 | 77 | 184 | 5.0 | 20.0 | 0.00 | 0.00 | 0.00 | 49 | 1019.8 |
| 20260830185649 | 77 | 145 | 7.0 | 10.0 | 0.00 | 0.00 | 0.00 | 51 | 1019.5 |
| 20260830185145 | 76 | 183 | 4.0 | 18.0 | 0.00 | 0.00 | 0.00 | 49 | 1019.6 |
| 20260830184644 | 77 | 163 | 13.0 | 16.0 | 0.00 | 0.00 | 0.00 | 48 | 1019.6 |
| 20260830184139 | 77 | 181 | 11.0 | 19.0 | 0.00 | 0.00 | 0.00 | 50 | 1019.6 |
| 20260830183639 | 76 | 129 | 5.0 | 11.0 | 0.00 | 0.00 | 0.00 | 48 | 1019.6 |
| 20260830183135 | 76 | 123 | 10.0 | 19.0 | 0.00 | 0.00 | 0.00 | 50 | 1019.8 |
| 20260830182630 | 75 | 179 | 9.0 | 19.0 | 0.00 | 0.00 | 0.00 | 49 | 1019.8 |
| 20260830182126 | 75 | 131 | 7.0 | 15.0 | 0.00 | 0.00 | 0.00 | 50 | 1019.7 |
| 20260830181622 | 75 | 155 | 13.0 | 21.0 | 0.00 | 0.00 | 0.00 | 49 | 1019.5 |
| 20260830181121 | 75 | 129 | 7.0 | 14.0 | 0.00 | 0.00 | 0.00 | 51 | 1019.5 |
| 20260830180620 | 74 | 127 | 16.0 | 21.0 | 0.00 | 0.00 | 0.00 | 52 | 1019.5 |
| 20260830180120 | 74 | 122 | 8.0 | 21.0 | 0.00 | 0.00 | 0.00 | 54 | 1019.5 |
| 20260830175619 | 73 | 133 | 16.0 | 18.0 | 0.00 | 0.00 | 0.00 | 53 | 1019.3 |
| 20260830175115 | 73 | 135 | 6.0 | 20.0 | 0.00 | 0.00 | 0.00 | 56 | 1019.6 |
| 20260830174610 | 73 | 129 | 10.0 | 16.0 | 0.00 | 0.00 | 0.00 | 59 | 1019.5 |
| 20260830174105 | 73 | 132 | 17.0 | 18.0 | 0.00 | 0.00 | 0.00 | 58 | 1019.6 |
| 20260830173600 | 72 | 154 | 14.0 | 17.0 | 0.00 | 0.00 | 0.00 | 60 | 1019.7 |
| 20260830173055 | 72 | 139 | 16.0 | 18.0 | 0.00 | 0.00 | 0.00 | 60 | 1019.5 |
| 20260830172552 | 71 | 153 | 13.0 | 19.0 | 0.00 | 0.00 | 0.00 | 63 | 1019.6 |
| 20260830172048 | 69 | 130 | 8.0 | 19.0 | 0.00 | 0.00 | 0.00 | 64 | 1019.3 |
| 20260830171543 | 69 | 132 | 16.0 | 18.0 | 0.00 | 0.00 | 0.00 | 62 | 1019.5 |
| 20260830171038 | 69 | 132 | 13.0 | 17.0 | 0.00 | 0.00 | 0.00 | 63 | 1019.3 |
| 20260830170538 | 69 | 127 | 10.0 | 20.0 | 0.00 | 0.00 | 0.00 | 63 | 1019.2 |
| 20260830170037 | 69 | 119 | 15.0 | 18.0 | 0.00 | 0.00 | 0.00 | 62 | 1019.3 |
| 20260830165532 | 69 | 169 | 7.0 | 16.0 | 0.00 | 0.00 | 0.00 | 61 | 1019.3 |
| 20260830165028 | 70 | 158 | 5.0 | 21.0 | 0.00 | 0.00 | 0.00 | 60 | 1019.1 |
| 20260830164524 | 71 | 130 | 8.0 | 19.0 | 0.00 | 0.00 | 0.00 | 57 | 1019.3 |
| 20260830164020 | 71 | 156 | 16.0 | 23.0 | 0.00 | 0.00 | 0.00 | 57 | 1019.3 |
| 20260830163517 | 71 | 154 | 15.0 | 23.0 | 0.00 | 0.00 | 0.00 | 56 | 1019.2 |
| 20260830163016 | 69 | 168 | 9.0 | 21.0 | 0.00 | 0.00 | 0.00 | 58 | 1019.2 |
| 20260830162513 | 69 | 160 | 12.0 | 21.0 | 0.00 | 0.00 | 0.00 | 59 | 1019.3 |
| 20260830162012 | 69 | 139 | 11.0 | 21.0 | 0.00 | 0.00 | 0.00 | 58 | 1019.0 |
| 20260830161507 | 68 | 132 | 9.0 | 16.0 | 0.00 | 0.00 | 0.00 | 60 | 1019.0 |
| 20260830161002 | 69 | 158 | 11.0 | 19.0 | 0.00 | 0.00 | 0.00 | 61 | 1019.2 |
| 20260830160458 | 68 | 134 | 10.0 | 24.0 | 0.00 | 0.00 | 0.00 | 59 | 1019.0 |
| 20260830155952 | 68 | 126 | 16.0 | 20.0 | 0.00 | 0.00 | 0.00 | 60 | 1019.1 |
| 20260830155449 | 69 | 119 | 7.0 | 18.0 | 0.00 | 0.00 | 0.00 | 59 | 1019.0 |
| 20260830154944 | 69 | 159 | 6.0 | 18.0 | 0.00 | 0.00 | 0.00 | 58 | 1019.1 |
| 20260830154439 | 68 | 167 | 10.0 | 21.0 | 0.00 | 0.00 | 0.00 | 60 | 1019.1 |
| 20260830153936 | 68 | 137 | 12.0 | 22.0 | 0.00 | 0.00 | 0.00 | 61 | 1019.2 |
| 20260830153431 | 68 | 134 | 10.0 | 21.0 | 0.00 | 0.00 | 0.00 | 61 | 1019.1 |
| 20260830152931 | 69 | 134 | 5.0 | 13.0 | 0.00 | 0.00 | 0.00 | 62 | 1018.9 |
| 20260830152426 | 67 | 137 | 7.0 | 12.0 | 0.00 | 0.00 | 0.00 | 68 | 1019.2 |
| 20260830151925 | 65 | 116 | 8.0 | 10.0 | 0.00 | 0.00 | 0.00 | 69 | 1019.1 |
| 20260830151425 | 65 | 167 | 5.0 | 7.0 | 0.00 | 0.00 | 0.00 | 70 | 1019.0 |
| 20260830150920 | 64 | 170 | 3.0 | 6.0 | 0.00 | 0.00 | 0.00 | 73 | 1019.1 |
| 20260830150420 | 65 | 276 | 1.0 | 4.0 | 0.00 | 0.00 | 0.00 | 71 | 1019.5 |
| 20260830145914 | 66 | 318 | 2.0 | 4.0 | 0.00 | 0.00 | 0.00 | 69 | 1019.2 |
| 20260830145414 | 66 | 334 | 6.0 | 7.0 | 0.00 | 0.00 | 0.00 | 67 | 1019.2 |
| 20260830144910 | 66 | 337 | 3.0 | 6.0 | 0.00 | 0.00 | 0.00 | 69 | 1018.9 |
| 20260830144407 | 65 | 121 | 4.0 | 12.0 | 0.00 | 0.00 | 0.00 | 68 | 1018.9 |
| 20260830143906 | 64 | 128 | 11.0 | 16.0 | 0.00 | 0.00 | 0.00 | 71 | 1018.8 |
| 20260830143401 | 63 | 141 | 10.0 | 14.0 | 0.00 | 0.00 | 0.00 | 72 | 1018.5 |
| 20260830142901 | 63 | 128 | 11.0 | 15.0 | 0.00 | 0.00 | 0.00 | 75 | 1018.9 |
| 20260830142356 | 62 | 145 | 9.0 | 15.0 | 0.00 | 0.00 | 0.00 | 76 | 1018.9 |
| 20260830141851 | 62 | 144 | 15.0 | 24.0 | 0.00 | 0.00 | 0.00 | 77 | 1018.9 |
| 20260830141347 | 62 | 153 | 13.0 | 22.0 | 0.00 | 0.00 | 0.00 | 75 | 1019.1 |
| 20260830140841 | 62 | 130 | 11.0 | 30.0 | 0.00 | 0.00 | 0.00 | 75 | 1018.6 |
| 20260830140337 | 61 | 108 | 12.0 | 17.0 | 0.00 | 0.00 | 0.00 | 77 | 1019.1 |
| 20260830135836 | 60 | 148 | 11.0 | 12.0 | 0.00 | 0.00 | 0.00 | 78 | 1019.1 |
| 20260830135331 | 60 | 158 | 7.0 | 11.0 | 0.00 | 0.00 | 0.00 | 82 | 1019.2 |
| 20260830134827 | 60 | 142 | 9.0 | 10.0 | 0.00 | 0.00 | 0.00 | 86 | 1019.1 |
| 20260830134322 | 60 | 138 | 6.0 | 10.0 | 0.00 | 0.00 | 0.00 | 86 | 1019.0 |
| 20260830133818 | 61 | 140 | 4.0 | 4.0 | 0.00 | 0.00 | 0.00 | 83 | 1018.9 |
| 20260830133313 | 61 | 292 | 2.0 | 3.0 | 0.00 | 0.00 | 0.00 | 81 | 1019.3 |
| 20260830132809 | 62 | 104 | 1.0 | 8.0 | 0.00 | 0.00 | 0.00 | 77 | 1019.1 |
| 20260830132306 | 62 | 272 | 9.0 | 10.0 | 0.00 | 0.00 | 0.00 | 73 | 1018.9 |
| 20260830131803 | 62 | 230 | 2.0 | 5.0 | 0.00 | 0.00 | 0.00 | 74 | 1018.1 |
| 20260830131258 | 62 | 161 | 6.0 | 6.0 | 0.00 | 0.00 | 0.00 | 74 | 1018.4 |
| 20260830130753 | 62 | 147 | 3.0 | 7.0 | 0.00 | 0.00 | 0.00 | 73 | 1018.3 |
| 20260830130248 | 62 | 139 | 9.0 | 12.0 | 0.00 | 0.00 | 0.00 | 73 | 1018.3 |
| 20260830125747 | 62 | 129 | 13.0 | 13.0 | 0.00 | 0.00 | 0.00 | 73 | 1018.2 |
| 20260830125243 | 62 | 128 | 8.0 | 9.0 | 0.00 | 0.00 | 0.00 | 76 | 1018.4 |
| 20260830124740 | 62 | 136 | 4.0 | 6.0 | 0.00 | 0.00 | 0.00 | 74 | 1018.3 |
| 20260830124236 | 62 | 131 | 9.0 | 12.0 | 0.00 | 0.00 | 0.00 | 74 | 1018.4 |
| 20260830123732 | 61 | 107 | 10.0 | 14.0 | 0.00 | 0.00 | 0.00 | 75 | 1018.3 |
| 20260830123228 | 61 | 130 | 9.0 | 10.0 | 0.00 | 0.00 | 0.00 | 77 | 1018.5 |
| 20260830122721 | 60 | 129 | 7.0 | 10.0 | 0.00 | 0.00 | 0.00 | 78 | 1018.3 |
| 20260830122220 | 60 | 151 | 6.0 | 9.0 | 0.00 | 0.00 | 0.00 | 80 | 1018.2 |
| 20260830121715 | 60 | 154 | 6.0 | 11.0 | 0.00 | 0.00 | 0.00 | 81 | 1018.3 |
| 20260830121215 | 60 | 125 | 5.0 | 8.0 | 0.00 | 0.00 | 0.00 | 83 | 1018.5 |
| 20260830120710 | 60 | 119 | 5.0 | 5.0 | 0.00 | 0.00 | 0.00 | 83 | 1018.5 |
| 20260830120206 | 60 | 146 | 2.0 | 3.0 | 0.00 | 0.00 | 0.00 | 83 | 1018.4 |
| 20260830115702 | 60 | 166 | 4.0 | 5.0 | 0.00 | 0.00 | 0.00 | 83 | 1018.4 |
| 20260830115157 | 60 | 254 | 3.0 | 4.0 | 0.00 | 0.00 | 0.00 | 83 | 1018.6 |
| 20260830114654 | 60 | 168 | 6.0 | 9.0 | 0.00 | 0.00 | 0.00 | 83 | 1018.5 |
| 20260830114154 | 60 | 120 | 6.0 | 9.0 | 0.00 | 0.00 | 0.00 | 83 | 1018.4 |
| 20260830113649 | 60 | 102 | 6.0 | 8.0 | 0.00 | 0.00 | 0.00 | 83 | 1018.5 |
| 20260830113144 | 60 | 311 | 2.0 | 11.0 | 0.00 | 0.00 | 0.00 | 82 | 1019.1 |
| 20260830112640 | 60 | 247 | 6.0 | 9.0 | 0.00 | 0.00 | 0.00 | 82 | 1018.3 |
| 20260830112136 | 60 | 159 | 8.0 | 9.0 | 0.00 | 0.00 | 0.00 | 83 | 1017.5 |
| 20260830111632 | 60 | 152 | 6.0 | 6.0 | 0.00 | 0.00 | 0.00 | 82 | 1017.7 |
| 20260830111128 | 60 | 140 | 3.0 | 5.0 | 0.00 | 0.00 | 0.00 | 81 | 1017.9 |
| 20260830110628 | 60 | 165 | 3.0 | 4.0 | 0.00 | 0.00 | 0.00 | 80 | 1017.7 |
| 20260830110124 | 60 | 166 | 4.0 | 5.0 | 0.00 | 0.00 | 0.00 | 79 | 1017.8 |
| 20260830105618 | 60 | 155 | 3.0 | 3.0 | 0.00 | 0.00 | 0.00 | 80 | 1017.4 |
| 20260830105114 | 60 | 194 | 2.0 | 5.0 | 0.00 | 0.00 | 0.00 | 79 | 1017.8 |
| 20260830104610 | 61 | 192 | 2.0 | 3.0 | 0.00 | 0.00 | 0.00 | 79 | 1017.9 |
| 20260830104107 | 60 | 133 | 4.0 | 6.0 | 0.00 | 0.00 | 0.00 | 79 | 1017.9 |
| 20260830103606 | 60 | 102 | 3.0 | 4.0 | 0.00 | 0.00 | 0.00 | 81 | 1017.7 |
| 20260830103106 | 60 | 138 | 4.0 | 6.0 | 0.00 | 0.00 | 0.00 | 81 | 1017.9 |
| 20260830102606 | 60 | 163 | 4.0 | 4.0 | 0.00 | 0.00 | 0.00 | 81 | 1018.3 |
| 20260830102102 | 60 | 88 | 2.0 | 4.0 | 0.00 | 0.00 | 0.00 | 81 | 1018.2 |
| 20260830101558 | 60 | 244 | 3.0 | 4.0 | 0.00 | 0.00 | 0.00 | 81 | 1018.2 |
| 20260830101057 | 60 | 184 | 0.0 | 7.0 | 0.00 | 0.00 | 0.00 | 81 | 1018.3 |
| 20260830100556 | 60 | 172 | 3.0 | 4.0 | 0.00 | 0.00 | 0.00 | 80 | 1017.9 |
| 20260830100056 | 60 | 131 | 2.0 | 4.0 | 0.00 | 0.00 | 0.00 | 81 | 1017.7 |
| 20260830095551 | 60 | 114 | 2.0 | 3.0 | 0.00 | 0.00 | 0.00 | 80 | 1017.8 |
| 20260830095047 | 61 | 104 | 1.0 | 3.0 | 0.00 | 0.00 | 0.00 | 78 | 1017.7 |
| 20260830094543 | 61 | 5 | 2.0 | 7.0 | 0.00 | 0.00 | 0.00 | 77 | 1017.7 |
| 20260830094044 | 61 | 43 | 2.0 | 4.0 | 0.00 | 0.00 | 0.00 | 76 | 1017.5 |
| 20260830093539 | 61 | 287 | 2.0 | 4.0 | 0.00 | 0.00 | 0.00 | 76 | 1017.9 |
| 20260830093035 | 61 | 98 | 2.0 | 5.0 | 0.00 | 0.00 | 0.00 | 76 | 1018.2 |
| 20260830092530 | 61 | 108 | 7.0 | 9.0 | 0.00 | 0.00 | 0.00 | 77 | 1018.5 |
| 20260830092027 | 62 | 125 | 5.0 | 5.0 | 0.00 | 0.00 | 0.00 | 77 | 1018.3 |
| 20260830091522 | 62 | 197 | 1.0 | 3.0 | 0.00 | 0.00 | 0.00 | 74 | 1018.5 |
| 20260830091021 | 62 | 44 | 0.0 | 8.0 | 0.00 | 0.00 | 0.00 | 73 | 1018.1 |
| 20260830090516 | 61 | 144 | 4.0 | 14.0 | 0.00 | 0.00 | 0.00 | 74 | 1017.8 |
| 20260830090011 | 62 | 57 | 2.0 | 3.0 | 0.00 | 0.00 | 0.00 | 73 | 1017.8 |
| 20260830085506 | 62 | 160 | 12.0 | 15.0 | 0.00 | 0.00 | 0.00 | 72 | 1017.8 |
| 20260830085002 | 62 | 154 | 13.0 | 17.0 | 0.00 | 0.00 | 0.00 | 73 | 1017.9 |
| 20260830084456 | 62 | 136 | 9.0 | 17.0 | 0.00 | 0.00 | 0.00 | 72 | 1017.8 |
| 20260830083951 | 62 | 143 | 8.0 | 17.0 | 0.00 | 0.00 | 0.00 | 74 | 1017.9 |
| 20260830083447 | 62 | 150 | 11.0 | 16.0 | 0.00 | 0.00 | 0.00 | 74 | 1017.7 |
| 20260830082946 | 62 | 179 | 10.0 | 16.0 | 0.00 | 0.00 | 0.00 | 76 | 1017.6 |
| 20260830082442 | 62 | 152 | 9.0 | 19.0 | 0.00 | 0.00 | 0.00 | 76 | 1017.6 |
| 20260830081936 | 64 | 146 | 12.0 | 14.0 | 0.00 | 0.00 | 0.00 | 70 | 1017.7 |
| 20260830081432 | 64 | 140 | 9.0 | 12.0 | 0.00 | 0.00 | 0.00 | 70 | 1018.9 |
| 20260830080931 | 64 | 197 | 5.0 | 18.0 | 0.00 | 0.00 | 0.00 | 70 | 1018.2 |
| 20260830080427 | 64 | 173 | 10.0 | 12.0 | 0.00 | 0.00 | 0.00 | 69 | 1017.9 |
| 20260830075927 | 64 | 126 | 13.0 | 23.0 | 0.00 | 0.00 | 0.00 | 68 | 1017.9 |
| 20260830075422 | 64 | 155 | 11.0 | 23.0 | 0.00 | 0.00 | 0.00 | 70 | 1017.8 |
| 20260830074917 | 64 | 144 | 17.0 | 21.0 | 0.00 | 0.00 | 0.00 | 69 | 1017.9 |
| 20260830074413 | 64 | 167 | 20.0 | 26.0 | 0.00 | 0.00 | 0.00 | 71 | 1017.7 |
| 20260830073908 | 63 | 155 | 13.0 | 25.0 | 0.00 | 0.00 | 0.00 | 71 | 1017.6 |
| 20260830073404 | 63 | 170 | 10.0 | 23.0 | 0.00 | 0.00 | 0.00 | 73 | 1017.8 |
| 20260830072859 | 63 | 165 | 16.0 | 21.0 | 0.00 | 0.00 | 0.00 | 76 | 1017.4 |
| 20260830072355 | 63 | 158 | 15.0 | 32.0 | 0.00 | 0.00 | 0.00 | 77 | 1017.0 |
| 20260830071855 | 62 | 160 | 19.0 | 42.0 | 0.00 | 0.00 | 0.00 | 80 | 1017.0 |
| 20260830071355 | 62 | 154 | 30.0 | 32.0 | 0.00 | 0.00 | 0.00 | 84 | 1017.0 |
| 20260830070854 | 63 | 124 | 20.0 | 35.0 | 0.00 | 0.00 | 0.00 | 83 | 1016.8 |
| 20260830070349 | 64 | 161 | 15.0 | 32.0 | 0.00 | 0.00 | 0.00 | 79 | 1018.3 |
| 20260830065848 | 64 | 181 | 14.0 | 27.0 | 0.00 | 0.00 | 0.00 | 76 | 1018.3 |
| 20260830065342 | 65 | 153 | 11.0 | 22.0 | 0.00 | 0.00 | 0.00 | 73 | 1017.7 |
| 20260830064841 | 65 | 137 | 20.0 | 30.0 | 0.00 | 0.00 | 0.00 | 66 | 1017.1 |
| 20260830064336 | 66 | 133 | 8.0 | 28.0 | 0.00 | 0.00 | 0.00 | 62 | 1017.3 |
| 20260830063836 | 66 | 147 | 18.0 | 26.0 | 0.00 | 0.00 | 0.00 | 61 | 1017.1 |
| 20260830063331 | 67 | 165 | 16.0 | 25.0 | 0.00 | 0.00 | 0.00 | 57 | 1016.9 |
| 20260830062826 | 67 | 146 | 12.0 | 27.0 | 0.00 | 0.00 | 0.00 | 55 | 1016.8 |
| 20260830062325 | 68 | 169 | 19.0 | 26.0 | 0.00 | 0.00 | 0.00 | 55 | 1016.9 |
| 20260830061820 | 69 | 150 | 20.0 | 26.0 | 0.00 | 0.00 | 0.00 | 47 | 1016.6 |
| 20260830061315 | 67 | 143 | 16.0 | 28.0 | 0.00 | 0.00 | 0.00 | 51 | 1016.4 |
| 20260830060812 | 67 | 157 | 21.0 | 24.0 | 0.00 | 0.00 | 0.00 | 51 | 1016.8 |
| 20260830060309 | 67 | 151 | 15.0 | 23.0 | 0.00 | 0.00 | 0.00 | 53 | 1017.0 |
| 20260830055808 | 66 | 142 | 18.0 | 23.0 | 0.00 | 0.00 | 0.00 | 52 | 1017.0 |
| 20260830055306 | 64 | 155 | 15.0 | 21.0 | 0.00 | 0.00 | 0.00 | 62 | 1016.6 |
| 20260830054804 | 64 | 138 | 16.0 | 19.0 | 0.00 | 0.00 | 0.00 | 63 | 1016.7 |
| 20260830054300 | 64 | 136 | 14.0 | 30.0 | 0.00 | 0.00 | 0.00 | 62 | 1017.1 |
| 20260830053755 | 64 | 129 | 13.0 | 30.0 | 0.00 | 0.00 | 0.00 | 66 | 1017.0 |
| 20260830053255 | 63 | 134 | 17.0 | 25.0 | 0.00 | 0.00 | 0.00 | 68 | 1017.5 |
| 20260830052754 | 62 | 143 | 10.0 | 28.0 | 0.00 | 0.00 | 0.00 | 69 | 1017.5 |
| 20260830052251 | 62 | 140 | 15.0 | 24.0 | 0.00 | 0.00 | 0.00 | 73 | 1017.8 |
| 20260830051745 | 62 | 158 | 9.0 | 18.0 | 0.00 | 0.00 | 0.00 | 74 | 1019.1 |
| 20260830051241 | 62 | 136 | 15.0 | 18.0 | 0.00 | 0.00 | 0.00 | 75 | 1019.3 |
| 20260830050739 | 63 | 126 | 11.0 | 17.0 | 0.00 | 0.00 | 0.00 | 71 | 1019.9 |
| 20260830050235 | 64 | 155 | 7.0 | 12.0 | 0.00 | 0.00 | 0.00 | 71 | 1020.7 |
| 20260830045733 | 65 | 166 | 13.0 | 20.0 | 0.00 | 0.00 | 0.00 | 70 | 1021.0 |
| 20260830045229 | 66 | 172 | 8.0 | 20.0 | 0.00 | 0.00 | 0.00 | 66 | 1021.1 |
| 20260830044728 | 67 | 144 | 10.0 | 15.0 | 0.00 | 0.00 | 0.00 | 62 | 1020.7 |
| 20260830044224 | 66 | 179 | 11.0 | 26.0 | 0.00 | 0.00 | 0.00 | 63 | 1020.7 |
| 20260830043719 | 66 | 193 | 4.0 | 18.0 | 0.00 | 0.00 | 0.00 | 65 | 1020.4 |
| 20260830043218 | 66 | 165 | 18.0 | 22.0 | 0.00 | 0.00 | 0.00 | 70 | 1019.9 |
| 20260830042715 | 64 | 164 | 18.0 | 18.0 | 0.00 | 0.00 | 0.00 | 80 | 1020.1 |
| 20260830042211 | 65 | 162 | 14.0 | 18.0 | 0.00 | 0.00 | 0.00 | 80 | 1019.2 |
| 20260830041709 | 65 | 150 | 8.0 | 25.0 | 0.00 | 0.00 | 0.00 | 79 | 1018.9 |
| 20260830041209 | 65 | 128 | 18.0 | 29.0 | 0.00 | 0.00 | 0.00 | 80 | 1018.8 |
| 20260830040704 | 64 | 130 | 12.0 | 32.0 | 0.00 | 0.00 | 0.00 | 81 | 1018.8 |
| 20260830040201 | 64 | 123 | 22.0 | 27.0 | 0.00 | 0.00 | 0.00 | 83 | 1018.9 |
| 20260830035659 | 64 | 169 | 11.0 | 25.0 | 0.00 | 0.00 | 0.00 | 83 | 1018.9 |
| 20260830035154 | 64 | 140 | 20.0 | 28.0 | 0.00 | 0.00 | 0.00 | 83 | 1019.1 |
| 20260830034649 | 64 | 155 | 22.0 | 26.0 | 0.00 | 0.00 | 0.00 | 83 | 1019.3 |
| 20260830034148 | 63 | 143 | 15.0 | 26.0 | 0.00 | 0.00 | 0.00 | 82 | 1019.1 |
| 20260830033644 | 64 | 172 | 16.0 | 26.0 | 0.00 | 0.00 | 0.00 | 80 | 1018.6 |
| 20260830033139 | 65 | 175 | 19.0 | 25.0 | 0.00 | 0.00 | 0.00 | 71 | 1018.3 |
| 20260830032639 | 66 | 170 | 14.0 | 24.0 | 0.00 | 0.00 | 0.00 | 67 | 1017.8 |
| 20260830032133 | 66 | 173 | 12.0 | 16.0 | 0.00 | 0.00 | 0.00 | 60 | 1017.0 |
| 20260830031629 | 66 | 176 | 14.0 | 17.0 | 0.00 | 0.00 | 0.00 | 60 | 1016.8 |
| 20260830031124 | 66 | 151 | 12.0 | 17.0 | 0.00 | 0.00 | 0.00 | 59 | 1016.2 |